YAOGAN 23 (40305 NORAD) Tracking and Keplerian Element Data

This shows tracking and keplerian element data for the satellite.

Feedback or suggestion? Click here.




ElementValue
Catalog40305
NameYAOGAN 23
Epoch Orbit22186
Epoch Day320.24217569
Epoch Year2018
RAAN255.1073
Inclination97.4703
Eccentricity0.0002081
Argument of Perigee62.7954
Mean Anonmoly70.2958
Mean Motion15.17976584
Decay Rate6.54E-06
L11 40305U 14071A 18320.24217569 .00000654 00000-0 35480-4 0 9994
L22 40305 97.4703 255.1073 0002081 62.7954 70.2958 15.17976584221864

Live tracking and technical data element details for YAOGAN 23 (NORAD 40305). YAOGAN 23 can be tracked NOW for your location showing map with azimuth and elevation plus other details from your city location.

Track the satellite on the map from your city or location and see movement details for azimuth, elevation, latitude, longitude, range, height, and movement on the map or in text.







IsCatalogInMostPopularTable: catalog: 40305, numindb: 127
Update: records affected: 1



GetName: 40305 YAOGAN 23

Hit Count: updated at: Fri, 16 Nov 2018 11:19:46 GMT